DW8305 Weather Reports


time (UTC)temp
C
wind
direction
speed
KPH
gust
KPH
rain 1hr
cm
rain 24hr
cm
rain mn
cm
humidity
%
barometer
mb
20260504191916 17 0.0 0.0 0.00 0.00 0.00 72 1013.5
20260504190916 17 0.0 0.0 0.00 0.00 0.00 71 1013.4
20260504185937 18 0.0 0.0 0.00 0.00 0.00 70 1013.4
20260504184916 18 0.0 0.0 0.00 0.00 0.00 69 1013.3
20260504183917 18 0.0 0.0 0.00 0.00 0.00 68 1013.3
20260504182916 18 0.0 0.0 0.00 0.00 0.00 68 1013.2
20260504181957 18 0.0 1.6 0.00 0.00 0.00 68 1013.2
20260504180916 18 0.0 1.6 0.00 0.00 0.00 67 1013.1
20260504175916 18 0.0 0.0 0.00 0.00 0.00 67 1013.0
20260504174916 18 0.0 1.6 0.00 0.00 0.00 67 1013.0
20260504173917 18 0.0 1.6 0.00 0.00 0.00 67 1013.0
20260504172916 19 0.0 0.0 0.00 0.00 0.00 67 1012.9
20260504171936 19 0 1.6 4.8 0.00 0.00 0.00 66 1013.0
20260504170916 19 0.0 1.6 0.00 0.00 0.00 65 1012.9
20260504150936 20 45 4.8 9.7 0.00 0.00 0.00 64 1013.0
20260504140916 20 338 6.4 8.0 0.00 0.00 0.00 66 1013.3
20260504081916 17 270 9.7 12.9 0.00 0.00 0.00 76 1014.3
20260504080916 17 293 4.8 9.7 0.00 0.00 0.00 77 1014.2
20260504045936 15 293 3.2 6.4 0.00 0.00 0.00 89 1013.1
20260504044936 15 248 1.6 6.4 0.00 0.00 0.00 88 1013.0
20260504043916 15 270 3.2 6.4 0.00 0.00 0.00 86 1013.0
20260504042916 15 248 1.6 3.2 0.00 0.00 0.00 86 1012.9
20260504041936 15 248 3.2 4.8 0.00 0.00 0.00 86 1012.7
20260504040916 15 248 3.2 4.8 0.00 0.00 0.00 85 1012.8
20260504035916 15 225 3.2 3.2 0.00 0.00 0.00 85 1012.7
20260504034916 15 248 3.2 3.2 0.00 0.00 0.00 85 1012.7
20260504033916 15 225 1.6 3.2 0.00 0.00 0.00 85 1012.7
20260504032936 15 225 3.2 6.4 0.00 0.00 0.00 85 1012.7
20260504031936 15 248 3.2 6.4 0.00 0.00 0.00 85 1012.6
20260504030936 15 0.0 1.6 0.00 0.00 0.00 85 1012.6
20260504025916 15 248 3.2 8.0 0.00 0.00 0.00 84 1012.6
20260504024936 15 270 3.2 4.8 0.00 0.00 0.00 84 1012.6
20260504023916 15 248 3.2 4.8 0.00 0.00 0.00 84 1012.6
20260504022916 15 270 4.8 4.8 0.00 0.00 0.00 84 1012.5
20260504021916 15 225 1.6 3.2 0.00 0.00 0.00 84 1012.5
20260504020916 15 225 3.2 3.2 0.00 0.00 0.00 84 1012.6
20260504015916 15 270 1.6 3.2 0.00 0.00 0.00 84 1012.6
20260504014916 15 225 1.6 3.2 0.00 0.00 0.00 84 1012.5
20260504013916 15 248 1.6 3.2 0.00 0.00 0.00 84 1012.3
20260504012916 15 270 1.6 3.2 0.00 0.00 0.00 83 1012.2
20260504011916 15 248 1.6 3.2 0.00 0.00 0.00 83 1012.3
20260504010916 15 225 1.6 3.2 0.00 0.00 0.00 83 1012.4
20260504005956 15 225 3.2 6.4 0.00 0.00 0.00 83 1012.5
20260504004916 15 225 3.2 4.8 0.00 0.00 0.00 83 1012.4
20260504003916 15 248 3.2 8.0 0.00 0.00 0.00 83 1012.3
20260504002916 15 225 4.8 8.0 0.00 0.00 0.00 82 1012.3
20260504001916 15 270 1.6 3.2 0.00 0.00 0.00 82 1012.2
20260504000916 15 270 1.6 3.2 0.00 0.00 0.00 81 1012.2
20260503235916 16 225 4.8 8.0 0.00 0.00 0.00 80 1012.2
20260503234916 16 270 1.6 6.4 0.00 0.00 0.00 79 1012.2
20260503233916 16 270 4.8 8.0 0.00 0.00 0.00 79 1012.2
20260503232916 16 248 4.8 6.4 0.00 0.00 0.00 78 1012.2
20260503231916 16 225 4.8 9.7 0.00 0.00 0.00 77 1012.2
20260503230936 16 270 1.6 3.2 0.00 0.00 0.00 76 1012.2
20260503225916 16 270 3.2 4.8 0.00 0.00 0.00 76 1012.3
20260503224916 16 270 4.8 8.0 0.00 0.00 0.00 75 1012.4
20260503223916 17 270 4.8 8.0 0.00 0.00 0.00 74 1012.4
20260503222916 17 225 4.8 8.0 0.00 0.00 0.00 74 1012.4
20260503221916 17 270 3.2 8.0 0.00 0.00 0.00 73 1012.4
20260503220936 17 270 6.4 11.3 0.00 0.00 0.00 72 1012.4
20260503215916 17 270 3.2 6.4 0.00 0.00 0.00 72 1012.4
20260503214916 17 270 6.4 9.7 0.00 0.00 0.00 71 1012.4
20260503213917 17 270 4.8 6.4 0.00 0.00 0.00 71 1012.4
20260503212956 17 270 3.2 4.8 0.00 0.00 0.00 70 1012.4
20260503211936 17 270 3.2 4.8 0.00 0.00 0.00 69 1012.4
20260503210936 17 270 6.4 8.0 0.00 0.00 0.00 69 1012.5
20260503205957 17 270 6.4 9.7 0.00 0.00 0.00 68 1012.4
20260503204916 17 270 4.8 8.0 0.00 0.00 0.00 67 1012.3
20260503203916 18 270 8.0 11.3 0.00 0.00 0.00 67 1012.4
20260503202917 18 270 11.3 14.5 0.00 0.00 0.00 66 1012.4
20260503201916 18 270 6.4 11.3 0.00 0.00 0.00 65 1012.4
20260503200916 18 248 8.0 14.5 0.00 0.00 0.00 64 1012.3
20260503195917 18 270 8.0 14.5 0.00 0.00 0.00 62 1012.3
20260503194917 18 270 8.0 19.3 0.00 0.00 0.00 62 1012.3
20260503193916 18 270 6.4 11.3 0.00 0.00 0.00 61 1012.2
20260503192917 18 270 12.9 19.3 0.00 0.00 0.00 59 1011.9